This demonstration page uses our WeatherBlox Daily Observations layout. Learn more.

Left ArrowRight Arrow

Hourly Observations for July 10, 2016

Temp ( °F °C ) Dew Point ( °F °C ) Humidity (%) Winds ( mph kmh ) Pressure ( in mb ) Visibility ( mi km ) Precip ( " mm )
12:53 am 00:53 Clear 63 17.2 60 15.6 90 90 N N/A 30.04 1017 10 16 N/A
1:53 am 01:53 Clear 63 17.2 59 15 87 87 NNW 5 7 30.03 1017 10 16 N/A
2:53 am 02:53 Clear 63 17.2 59 15 87 87 WNW 5 7 30.03 1017 10 16 N/A
3:53 am 03:53 Clear 60 15.6 58 14.4 93 93 N N/A 30.04 1017 10 16 N/A
4:53 am 04:53 Clear 59 15 57 13.9 93 93 N N/A 30.04 1017 10 16 N/A
5:53 am 05:53 Clear 59 15 57 13.9 93 93 N N/A 30.06 1018 8 13 N/A
6:53 am 06:53 Sunny 60 15.6 58 14.4 93 93 N N/A 30.07 1018 9 14 N/A
7:53 am 07:53 Sunny 66 18.9 61 16.1 84 84 N N/A 30.07 1018 10 16 N/A
8:53 am 08:53 Sunny 69 20.6 62 16.7 78 78 N N/A 30.08 1019 10 16 N/A
9:53 am 09:53 Sunny 73 22.8 63 17.2 71 71 N N/A 30.09 1019 10 16 N/A
10:53 am 10:53 Mostly Sunny 76 24.4 63 17.2 64 64 N N/A 30.09 1019 10 16 N/A
11:53 am 11:53 Sunny 78 25.6 60 15.6 54 54 N N/A 30.08 1019 10 16 N/A
12:53 pm 12:53 Mostly Cloudy 81 27.2 62 16.7 53 53 VRB 3 6 30.06 1018 10 16 N/A
1:53 pm 13:53 Sunny 82 27.8 60 15.6 47 47 VRB 3 6 30.06 1018 10 16 N/A
2:53 pm 14:53 Sunny 83 28.3 61 16.1 48 48 N N/A 30.06 1018 10 16 N/A
3:53 pm 15:53 Sunny 85 29.4 61 16.1 45 45 WNW 6 9 30.05 1018 10 16 N/A
4:53 pm 16:53 Sunny 82 27.8 60 15.6 47 47 VRB 3 6 30.03 1017 10 16 N/A
5:53 pm 17:53 Mostly Sunny 82 27.8 63 17.2 53 53 N N/A 30.02 1017 10 16 N/A
6:53 pm 18:53 Sunny 84 28.9 61 16.1 46 46 N N/A 30.00 1016 10 16 N/A
7:53 pm 19:53 Sunny 82 27.8 62 16.7 51 51 NW 5 7 30.01 1016 10 16 N/A
8:53 pm 20:53 Sunny 75 23.9 65 18.3 71 71 N N/A 30.01 1016 10 16 N/A
9:53 pm 21:53 Clear 69 20.6 64 17.8 84 84 N N/A 30.03 1017 10 16 N/A
10:53 pm 22:53 Clear 67 19.4 62 16.7 84 84 N N/A 30.04 1017 10 16 N/A
11:53 pm 23:53 Clear 65 18.3 62 16.7 90 90 N N/A 30.03 1017 10 16 N/A

Powered by AerisWeather